Weather Roundup
Issued by NWS

Home | Current Version | Previous Version | Text Only | Print | Product List | Glossary On
Versions: 1 2 3 4 5 6 7 8 9 10 11 12 13 14 15 16 17 18 19 20 21 22 23 24 25 26 27 28 29 30 31 32 33 34 35 36 37 38 39 40 41 42 43 44 45 46 47 48 49 50
000
NZUS93 KARX 010910
HRRWXR

CURRENT HOURLY OBSERVATIONS ACROSS
MUCH OF THE UPPER MISSISSIPPI VALLEY
NATIONAL WEATHER SERVICE LA CROSSE WI
300 AM CST SUN FEB 01 2015


...SOUTHEAST MINNESOTA...


CITY           SKY/WX    TMP DP  RH WIND       PRES   REMARKS
ROCHESTER      LGT SNOW  19  16  88 NE21G28   30.06F VSB 1   WCI   3
ROCHESTER/MAYO CLOUDY    19  15  84 NE17G26   30.08F WCI   4
WINONA         LGT SNOW  23  19  86 NE10G16   30.15S WCI  12
AUSTIN         LGT SNOW  21  18  86 NE18G26   30.01F WCI   6
ALBERT LEA     LGT SNOW  19  18  93 NE21G28   30.02F WCI   3
DODGE CENTER   LGT SNOW  18  16  93 NE15G24   30.06F WCI   3
PRESTON        LGT SNOW  22  20  93 NE13G21   30.04F WCI  10
OWATONNA       LGT SNOW  18  16  93 NE16G22   30.08F WCI   3
FARIBAULT      LGT SNOW  18  16  93 N16G23    30.12F WCI   3
$$

...ELSEWHERE IN MINNESOTA...


CITY           SKY/WX    TMP DP  RH WIND       PRES   REMARKS
MINNEAPOLIS    LGT SNOW  17  10  74 NE16G23   30.20S WCI   2
INTNL FALLS    MOCLDY   -18 -21  87 CALM      30.47R
DULUTH         FLURRIES   0  -8  69 N9        30.29F WCI -15
RED WING       LGT SNOW  18  12  79 NE9       30.17F WCI   6
REDWOOD FALLS  LGT SNOW  17  13  84 NE13G21   30.16F VSB 1   WCI   4
MANKATO        CLOUDY    18  12  79 NE23      30.10F WCI   0
WORTHINGTON    CLOUDY    30  12  47 NE26G35   30.03R WCI  16
FAIRMONT       CLOUDY    21  16  79 NE18G30   30.02S WCI   6
$$

...SOUTHWEST WISCONSIN...


CITY           SKY/WX    TMP DP  RH WIND       PRES   REMARKS
LA CROSSE      LGT SNOW  25  21  85 N10       30.12F FOG     WCI  15
PRAIRIE DU CHI LGT SNOW  27  24  86 E8G16     30.04F WCI  19
BOSCOBEL       LGT SNOW  27  23  85 NE13G20   30.08F VSB 3/4 WCI  16
LONE ROCK      LGT SNOW  24  20  84 E17G23    30.10F FOG     WCI  11
PLATTEVILLE    CLOUDY    27  26  94 NE18G25   30.01F VSB 1   WCI  14
FORT MC COY    LGT SNOW  20  16  84 E17G24    30.15S WCI   6
CAMP DOUGLAS   LGT SNOW  18  16  93 NE8       30.17S FOG     WCI   7
VIROQUA        CLOUDY    23  22  96 E26G35    30.06F WCI   6
WIS DELLS      SNOW      17  14  88 NE16G24   30.13F VSB 1/2 WCI   2
$$

...ELSEWHERE IN WISCONSIN...


CITY           SKY/WX    TMP DP  RH WIND       PRES   REMARKS
MILWAUKEE      LGT SNOW  27  23  85 NE22G30   30.13F FOG     WCI  13
MADISON        LGT SNOW  22  18  85 NE17      30.11F FOG     WCI   8
GREEN BAY      CLOUDY    14   6  70 NE18G28   30.26F WCI  -3
EAU CLAIRE     LGT SNOW  16   9  74 NE14      30.20F WCI   2
BLACK RVR FLS  LGT SNOW  20  17  88 NE9       30.16F WCI  10
MEDFORD        CLOUDY    11   4  72 NE15      30.19S WCI  -5
WAUSAU         CLOUDY    11   2  67 NE10G20   30.22S WCI  -3
WIS RAPIDS     LGT SNOW  14   8  77 E14       30.21F WCI  -1
MARSHFIELD     LGT SNOW  15  10  80 NE16      30.18F WCI  -1
RICE LAKE      CLOUDY    14   4  63 NE14      30.25F WCI  -1
$$

...NORTHEAST IOWA...


CITY           SKY/WX    TMP DP  RH WIND       PRES   REMARKS
DECORAH        LGT SNOW  25  23  93 E13G20    30.01S WCI  13
MASON CITY     LGT SNOW  25  22  88 NE20      29.98F VSB 3/4 WCI  11
CHARLES CITY   LGT SNOW  27  27 100 NE21G29   29.98S WCI  13
OELWEIN        LGT SNOW  27  27 100 E20G29    29.94F WCI  13
$$

...ELSEWHERE IN IOWA...


CITY           SKY/WX    TMP DP  RH WIND       PRES   REMARKS
DES MOINES     LGT SNOW  33  31  92 E7        29.84F FOG     WCI  27
IOWA CITY      LGT SNOW  32  32 100 E7        29.93F VSB 3/4 WCI  26
FORT DODGE     CLOUDY    27  23  86 CALM      29.90F
$$

...NORTHERN ILLINOIS...


CITY           SKY/WX    TMP DP  RH WIND       PRES   REMARKS
CHICAGO-OHARE  LGT SNOW  31  29  92 E9        30.07F VSB 3/4 WCI  23
CHICAGO-MIDWAY LGT SNOW  33  31  92 E10       30.08F VSB 1   WCI  25
MOLINE         LGT SNOW  32  31  96 E9        29.93F VSB 1   WCI  24
ROCKFORD       LGT SNOW  30  27  88 E13       30.06F VSB 1   WCI  20
PEORIA         LGT SNOW  34  31  88 E8        29.97F FOG     WCI  27
$$

NOTE: "FAIR" INDICATES FEW OR NO CLOUDS BELOW 12,000 FEET WITH NO
SIGNIFICANT WEATHER AND/OR OBSTRUCTIONS TO VISIBILITY. WIND
SPEEDS ARE IN MILES-PER-HOUR.



USA.gov is the U.S. government's official web portal to all federal, state and local government web resources and services.